Location: Unspecified
(0.0000°N, 0.0000°E)
Time: 06:47:46
(UTC+00:00)

S-56A Canister/Altair - Pass Details

Date: 31 May 2024
Orbit: 637 x 2489 km, 38.9° (Epoch: 22 June)

Event Time Altitude Azimuth Distance (km) Brightness Sun altitude
Rises 01:49:34 0° 251° (WSW) 5,540 - -55.0°
Reaches altitude 10° 01:53:19 10° 258° (WSW) 4,737 - -54.3°
Maximum altitude 02:05:48 39° 322° (NW) 3,317 - -51.8°
Exits shadow 02:08:02 37° 338° (NNW) 3,397 10.6 -51.4°
Drops below altitude 10° 02:19:09 10° 25° (NNE) 5,012 12.1 -49.1°
Sets 02:23:20 0° 33° (NNE) 5,879 12.6 -48.3°
